GFSCGP_sfc_dewp_108.txt.gz
Dewpoint
21 21 18 15 16 17 19 18 17 17 18 20 17 18 19 20 19 22 42 48 54 54 56 57 60 61 61 62 67 70 70 69 69 70 70 70 69 70 69 69 69 69 67 69
19 15 17 17 20 21 21 21 20 19 17 18 15 16 19 21 20 20 23 27 50 54 55 56 59 61 62 62 63 69 69 69 69 69 69 69 68 70 70 70 70 70 69 70
19 18 20 20 19 19 20 20 13 14 17 15 18 15 16 17 22 29 30 35 31 35 37 55 57 60 62 62 63 66 68 69 69 69 69 70 69 69 69 68 69 71 71 72
17 20 19 17 15 16 17 15 17 13 15 12 15 13 17 17 24 28 31 30 33 44 48 50 56 59 61 63 63 65 67 69 69 70 69 69 67 66 67 67 67 72 71 72
17 18 17 17 15 18 12 14 13 16 13 14 14 14 17 25 24 25 30 33 44 47 48 52 55 56 59 62 64 65 66 69 69 70 69 69 68 67 67 68 67 70 72 72
18 22 22 20 19 18 16 16 15 19 15 12 13 15 22 41 41 32 40 42 43 47 50 53 55 59 58 60 64 65 66 69 70 70 70 69 69 68 67 67 67 70 71 72
23 25 24 23 21 22 19 15 14 13 14 15 19 19 37 45 47 47 47 47 48 47 53 56 60 63 63 60 63 66 67 68 70 70 71 70 68 68 68 67 66 68 70 72
22 21 23 23 24 21 21 16 14 11 14 14 17 16 36 48 51 50 49 48 49 50 53 56 60 62 62 61 66 68 68 68 71 71 70 70 70 69 69 68 67 67 68 70
22 22 26 25 26 26 24 23 22 16 16 17 20 32 41 47 47 48 47 50 51 53 53 56 60 62 63 63 61 65 68 69 71 72 71 71 70 70 70 69 68 68 68 71
26 20 25 27 27 28 25 26 27 27 23 23 26 31 30 42 46 48 48 51 54 55 56 57 58 59 62 63 64 63 66 66 70 73 72 71 71 71 70 72 72 70 71 71
32 25 24 27 26 24 23 23 30 29 29 25 26 29 38 46 48 48 51 54 56 57 57 59 60 61 63 63 61 61 65 64 67 73 73 71 71 72 71 69 73 72 71 72
33 25 25 24 27 27 25 28 32 28 27 30 30 30 46 49 50 52 53 54 61 59 63 62 63 63 61 61 62 64 64 64 67 73 74 73 72 74 72 71 71 72 72 72
25 24 22 24 27 28 28 29 29 31 34 30 28 28 45 46 46 51 50 49 59 61 60 59 60 60 64 61 66 66 67 67 69 74 74 74 73 72 73 72 73 73 72 71
37 27 24 24 27 28 29 29 28 26 24 25 29 31 45 47 50 52 49 51 59 59 61 59 58 61 62 64 66 66 66 66 67 71 69 69 66 67 66 67 67 68 71 70
30 28 32 32 32 31 29 28 28 28 26 26 35 43 46 50 51 54 52 54 57 55 60 58 60 62 61 61 64 66 67 66 65 64 64 65 66 66 66 66 66 66 66 67
30 23 29 29 32 32 29 33 42 41 45 42 46 46 51 53 52 56 57 58 57 58 60 60 62 63 60 62 62 63 63 66 66 64 64 64 65 65 65 66 66 65 65 64
30 28 26 24 26 32 31 44 43 47 46 45 38 45 52 53 54 54 55 58 59 61 62 63 62 61 62 63 63 63 64 65 64 64 63 63 64 64 65 65 66 66 65 65
29 29 29 25 28 26 34 48 46 44 44 46 46 46 47 54 53 54 55 57 59 60 62 63 63 63 63 63 63 63 63 64 65 64 63 63 63 63 63 63 63 63 63 64
28 27 27 30 30 32 44 45 46 44 44 50 50 51 51 54 52 50 55 59 60 60 61 62 64 63 63 63 63 63 62 62 63 63 64 65 63 63 62 62 61 62 62 63
44 40 36 38 34 32 39 46 50 51 42 52 48 48 52 52 46 49 53 56 60 61 61 61 62 61 60 59 60 60 60 61 61 62 62 63 63 63 62 62 62 64 66 66
40 41 40 41 39 39 44 47 48 39 39 49 49 51 52 50 51 54 54 56 59 60 61 62 61 60 59 59 59 58 58 59 60 61 62 62 62 62 62 61 61 62 62 63
39 38 39 41 40 36 48 47 41 44 49 50 50 51 52 55 53 55 55 56 59 60 61 62 60 59 59 58 57 56 57 58 59 59 59 59 60 61 61 60 61 62 61 62
39 45 41 40 39 43 48 46 48 51 52 52 53 55 57 56 54 56 56 58 60 60 60 60 60 59 58 59 58 57 57 58 59 58 58 59 59 60 59 58 57 59 60 60
43 45 44 42 42 43 45 51 53 54 53 53 55 56 56 55 56 55 56 57 58 59 59 58 57 58 58 58 59 57 58 59 58 57 57 57 58 57 59 59 59 56 58 58
41 42 41 42 42 43 48 50 52 53 55 55 57 57 57 56 56 56 56 58 57 59 59 58 57 58 58 57 56 57 57 57 55 55 56 55 54 54 56 57 57 58 54 56
41 39 40 41 41 42 44 52 53 53 54 55 56 54 56 56 56 57 56 56 56 56 56 57 57 55 55 57 57 57 57 55 54 54 55 55 53 54 55 55 55 52 51 46

GFSCGP_sfc_dewp_111.txt.gz
Dewpoint
21 18 20 21 16 16 17 18 18 19 20 21 19 18 18 20 19 22 51 51 51 56 57 58 59 60 61 65 66 68 68 69 69 69 70 69 69 69 69 66 69 70 68 69
19 15 17 20 18 17 18 18 19 22 22 20 15 15 17 19 18 22 26 50 52 53 55 57 60 60 60 61 65 68 68 69 69 68 69 70 69 69 69 69 68 69 68 66
18 18 22 21 20 20 20 22 22 19 18 16 18 16 16 18 22 28 31 32 37 46 51 55 57 61 61 61 66 68 68 69 69 68 68 69 69 69 68 69 69 69 69 68
18 19 21 19 18 17 17 17 18 13 13 9 15 11 17 24 25 33 36 45 46 48 50 54 49 56 61 61 62 67 68 69 69 68 67 68 68 67 68 68 69 70 70 70
18 19 19 21 21 16 16 18 14 15 13 13 15 13 16 40 38 39 43 46 47 48 51 52 54 57 60 62 62 64 68 68 68 68 68 67 67 67 67 68 67 69 71 71
19 22 24 23 23 19 21 18 19 20 16 13 15 16 18 40 41 43 47 48 48 49 53 55 58 60 62 63 62 64 66 68 69 68 68 68 67 66 66 66 67 68 70 71
21 25 25 25 22 24 23 20 18 16 16 14 20 18 25 41 47 48 48 48 50 51 53 55 58 60 63 62 60 64 66 66 68 68 69 68 68 68 67 66 67 67 69 70
20 18 23 25 24 24 23 18 18 18 17 20 19 21 33 46 49 50 49 50 51 53 53 54 58 60 62 61 64 65 66 66 68 69 69 69 69 69 68 67 67 67 67 69
21 21 26 27 27 26 24 22 23 19 20 18 20 34 40 47 47 48 48 51 53 54 55 57 58 60 61 63 64 68 68 68 70 70 70 70 70 69 68 68 68 67 67 68
25 20 24 28 26 26 24 26 28 28 25 25 26 28 28 34 43 48 51 53 55 57 58 59 60 61 61 62 63 64 66 66 67 72 71 70 70 70 69 69 68 68 67 68
29 26 22 27 25 23 24 23 30 29 29 26 25 27 35 42 47 48 51 50 57 59 61 61 61 62 62 62 61 64 64 63 65 68 73 71 71 71 70 69 70 69 69 69
28 24 24 23 27 28 25 29 29 26 25 29 29 30 43 48 49 52 51 50 56 61 59 59 59 61 63 60 62 62 64 65 66 67 70 72 72 71 70 70 69 72 71 71
32 23 22 23 26 30 27 30 29 30 32 29 26 26 43 47 49 49 50 49 56 59 60 59 58 60 62 64 63 65 66 66 66 66 71 72 72 72 72 71 71 71 72 72
38 27 23 23 26 30 30 30 30 26 25 26 28 27 39 46 48 49 52 51 54 59 59 59 57 59 59 61 62 62 64 65 65 67 70 70 66 68 67 67 69 72 72 71
27 27 30 30 31 32 31 31 31 36 32 29 32 40 44 48 50 51 54 56 57 56 57 57 59 60 59 60 61 62 63 66 63 65 66 65 66 66 66 66 66 67 67 70
29 25 29 26 26 27 27 30 38 42 45 42 44 42 50 53 53 55 55 56 58 59 59 59 61 61 60 61 62 63 64 66 65 64 64 65 65 65 66 65 66 65 65 65
29 29 27 26 26 28 25 30 42 42 46 42 39 39 48 48 53 54 54 56 57 59 60 62 61 61 63 63 63 64 64 65 64 63 63 63 64 64 64 65 64 64 63 64
26 28 28 25 27 22 26 47 45 45 44 45 45 48 51 52 53 53 54 55 57 59 60 61 62 63 64 62 63 63 63 64 65 64 63 62 63 62 63 64 65 65 65 65
28 27 26 25 25 29 43 45 44 42 40 51 50 50 51 52 53 51 53 57 59 59 60 61 62 61 60 61 61 61 61 62 62 63 63 65 64 62 62 61 62 62 62 62
42 33 30 36 32 31 38 47 50 50 41 51 51 47 46 51 45 47 52 55 55 59 60 60 60 59 58 58 59 59 59 59 59 60 61 61 63 63 62 62 62 63 64 65
39 40 38 38 36 39 43 48 51 39 38 48 48 47 48 48 50 51 55 53 56 59 61 61 59 58 57 57 57 56 56 56 57 59 59 59 59 60 60 60 61 61 61 61
38 37 37 38 36 34 46 48 43 44 47 48 49 49 49 50 54 55 55 55 57 59 61 60 58 57 57 57 56 56 56 57 57 57 58 58 59 59 58 57 59 59 60 62
37 41 37 39 38 42 44 47 47 48 48 51 51 53 53 53 55 54 56 56 57 60 61 60 59 58 58 58 57 57 57 57 57 57 56 57 57 58 58 57 56 58 58 59
41 45 43 42 40 43 45 47 51 52 52 53 54 54 55 55 56 54 55 56 56 59 59 58 58 57 57 57 57 56 57 56 56 55 55 54 54 55 56 58 57 55 56 57
34 43 43 42 41 44 45 49 52 53 54 55 55 56 56 56 56 55 56 56 57 58 59 57 57 57 56 56 56 56 56 54 54 54 55 53 52 53 54 54 56 56 53 53
37 40 40 39 41 40 41 51 52 52 53 54 55 53 54 55 56 56 55 57 57 57 58 57 56 55 55 56 56 57 56 55 54 53 53 52 52 53 54 53 51 50 48 45

GFSCGP_sfc_dewp_117.txt.gz
Dewpoint
25 32 24 21 24 20 18 19 19 20 20 21 22 21 28 36 37 43 47 51 54 57 58 61 64 66 66 69 70 71 72 73 72 70 68 68 67 68 68 69 72 73 72 73
19 18 20 20 19 20 19 19 19 21 21 23 20 19 28 38 41 44 45 48 50 52 57 60 62 64 67 68 70 71 72 73 72 70 70 69 69 67 67 68 70 72 73 73
19 17 21 20 20 20 20 20 21 19 21 16 20 21 36 39 42 44 46 47 48 50 52 57 59 62 63 67 70 71 72 73 72 72 71 71 70 69 68 68 69 71 72 73
20 18 19 22 21 21 20 20 20 19 17 16 19 15 27 40 39 41 43 45 47 50 52 55 57 60 62 63 67 71 72 73 73 73 72 72 68 67 68 68 69 69 72 72
19 18 21 23 22 19 23 17 19 17 18 18 18 15 25 40 39 40 43 47 49 53 54 55 55 59 61 63 66 68 73 74 73 73 73 71 71 69 70 69 72 73 73 72
19 21 22 22 23 24 25 23 24 23 18 17 22 18 20 27 40 43 45 47 50 51 53 57 59 59 61 61 61 66 70 73 74 74 73 73 72 72 70 71 70 70 70 70
20 23 25 25 22 25 26 23 19 19 18 18 24 20 25 36 44 45 46 47 50 54 54 56 60 61 63 63 62 64 69 70 73 73 73 73 73 73 73 73 71 71 69 70
18 18 24 27 25 25 25 26 21 21 18 19 25 24 28 42 46 48 50 49 53 55 58 60 61 61 63 63 63 63 67 70 71 72 73 73 74 71 72 73 71 70 70 71
24 23 25 27 26 26 26 26 25 26 27 21 24 29 37 45 45 46 46 47 50 50 56 60 60 60 62 64 63 63 67 70 70 71 73 74 74 73 72 74 74 71 72 71
28 23 23 26 26 28 28 28 28 30 26 25 27 31 30 33 35 40 45 47 51 51 55 59 59 61 61 63 64 64 66 68 70 71 72 72 73 74 73 74 73 73 73 73
27 28 26 28 27 27 27 29 31 29 30 24 24 25 37 37 41 44 47 49 53 53 55 59 59 61 61 62 65 65 66 67 67 69 72 73 72 73 73 73 72 72 73 73
29 27 27 25 27 28 29 31 30 28 29 29 29 26 31 38 43 47 48 52 53 54 54 58 60 61 61 62 64 63 65 66 68 68 68 68 72 73 72 73 73 72 72 72
31 30 26 27 28 30 29 31 32 33 34 31 28 27 33 36 38 44 50 50 55 58 59 61 62 61 62 62 64 64 66 66 66 67 67 67 67 67 72 73 72 73 73 72
40 31 31 25 29 31 30 30 31 32 29 29 28 30 32 35 45 50 52 55 57 58 59 61 63 63 63 62 63 64 64 66 67 66 67 68 68 69 68 73 74 72 73 73
36 34 33 30 29 30 29 28 27 30 30 28 28 28 33 43 50 51 54 56 56 56 57 60 61 64 64 64 63 64 65 66 67 66 66 66 67 71 72 73 73 73 72 73
33 32 34 28 27 27 27 27 28 28 28 28 31 33 44 50 50 52 52 52 54 55 57 59 61 63 64 63 64 63 65 66 67 66 65 66 66 66 68 68 68 67 67 66
33 32 32 26 27 27 25 28 28 28 31 34 34 40 46 47 49 52 51 51 52 55 58 59 61 63 63 63 64 63 64 66 66 65 64 64 65 65 66 67 67 66 66 66
34 36 32 26 30 22 26 43 45 41 41 44 45 46 48 51 53 52 54 54 55 57 57 58 61 62 64 64 64 64 64 64 64 64 66 65 65 64 65 66 66 67 67 67
32 34 30 28 25 28 29 42 43 41 40 43 45 45 45 49 50 48 52 55 57 57 59 61 62 62 63 62 63 63 62 63 63 63 63 63 65 64 63 64 65 66 66 66
35 37 34 37 32 27 37 45 48 47 39 45 48 46 46 50 43 45 53 54 56 59 60 61 61 61 61 61 61 61 61 61 61 61 61 62 64 64 64 64 65 66 66 65
34 44 40 39 36 36 41 46 49 39 37 45 48 50 50 47 48 54 55 56 58 59 59 61 61 61 60 60 59 59 60 60 61 61 62 63 62 62 63 64 65 65 66 66
36 40 41 42 39 33 45 48 43 44 49 47 48 51 53 54 55 55 56 58 58 59 60 60 59 59 59 59 61 60 61 62 61 61 61 61 63 61 60 64 64 65 65 65
40 42 38 43 37 43 46 48 48 52 50 50 51 52 55 55 54 55 56 57 58 59 60 59 57 59 60 61 62 61 61 62 61 60 60 60 61 61 62 62 64 62 64 64
43 45 42 40 38 39 41 46 49 51 51 52 54 55 54 54 55 55 57 59 60 60 60 59 57 59 59 60 60 60 60 60 60 59 59 59 59 60 61 59 58 60 61 61
35 45 40 41 41 43 43 46 49 52 55 54 53 55 55 56 54 56 57 58 59 60 61 61 60 59 59 59 59 59 59 59 58 58 57 58 57 59 58 60 58 57 58 55
36 37 36 34 41 45 45 49 52 53 51 52 54 54 55 55 55 57 57 58 59 60 61 60 60 60 59 60 60 60 60 59 58 57 55 55 55 55 54 55 55 48 46 44

GFSCGP_sfc_dewp_120.txt.gz
Dewpoint
35 30 23 19 21 20 19 19 18 17 19 20 19 22 28 35 37 40 45 50 53 54 58 62 64 65 65 68 70 71 72 74 72 70 69 68 67 67 66 66 70 71 71 72
20 18 18 19 20 20 20 19 17 17 18 19 19 21 28 35 38 41 42 47 51 55 58 60 63 64 65 67 70 72 72 73 73 71 72 69 69 67 66 66 69 71 72 72
18 18 19 20 21 21 20 20 18 17 17 18 20 22 27 31 37 40 42 45 49 52 56 60 61 62 62 68 69 71 73 74 74 71 71 72 70 69 66 66 66 69 71 72
19 18 20 22 22 23 21 20 18 18 18 16 19 15 28 32 31 35 40 43 47 51 53 55 57 62 63 64 66 71 73 74 74 75 73 71 69 67 67 67 65 67 71 71
21 17 19 22 23 21 23 20 20 20 20 20 20 17 25 32 30 32 38 43 46 49 52 56 56 58 59 60 64 67 72 74 74 75 75 71 72 68 69 67 72 73 73 72
19 20 21 22 23 24 24 23 25 23 19 17 23 19 19 24 33 36 39 42 45 49 50 54 59 60 62 62 62 63 70 74 75 75 75 76 75 74 69 71 69 68 68 70
19 20 23 24 23 24 24 22 19 20 18 18 26 21 24 31 39 41 42 43 46 50 53 55 58 59 61 62 63 62 66 71 73 73 74 75 75 76 76 75 70 71 68 67
17 20 23 24 25 25 23 23 21 23 18 19 28 23 30 38 42 44 44 44 45 46 48 53 55 57 59 60 63 63 65 69 72 72 74 76 76 73 72 74 70 69 68 70
22 20 24 25 25 26 27 26 24 24 25 23 22 26 30 40 40 38 38 40 44 48 49 53 56 58 60 60 62 63 66 69 71 71 73 75 76 76 73 75 75 71 74 70
28 25 23 25 26 28 28 28 25 27 27 24 22 28 26 35 35 36 38 41 46 51 50 53 56 57 60 60 62 64 65 68 69 71 71 71 74 74 76 75 74 75 74 75
27 27 25 27 28 26 28 28 29 24 26 24 21 23 36 34 34 38 39 41 48 52 53 54 55 57 60 60 60 63 63 66 68 70 71 74 73 73 74 74 74 75 75 76
31 26 27 26 29 28 28 29 30 27 30 29 29 26 29 33 33 33 35 43 49 53 55 57 58 60 60 62 62 62 64 65 66 68 69 69 70 73 73 73 74 74 74 74
31 27 26 28 28 30 28 30 31 32 33 32 27 25 29 33 34 36 50 51 54 54 54 55 57 59 61 63 63 63 65 65 66 67 67 67 68 69 69 73 74 74 74 73
40 29 31 22 27 30 30 28 29 31 29 27 24 28 31 32 32 40 50 51 53 53 53 55 58 60 62 63 64 64 64 63 64 67 67 68 68 68 71 70 73 74 74 74
33 34 31 30 26 26 27 25 25 26 27 26 27 28 30 34 39 49 51 51 50 51 52 55 59 61 62 63 64 64 65 65 66 67 68 68 68 69 71 71 71 73 74 74
32 32 32 29 24 24 24 24 24 24 23 23 25 28 38 46 47 48 50 49 48 49 51 56 57 59 60 63 63 64 65 65 66 66 66 67 67 68 68 68 71 73 73 74
35 32 31 27 23 24 24 22 22 24 25 26 28 35 44 45 46 48 48 47 49 51 53 55 57 59 62 64 65 64 64 65 64 66 67 67 66 66 67 67 67 66 66 66
35 37 32 24 27 23 26 32 30 32 30 32 39 43 44 46 48 47 50 50 50 51 54 57 58 61 64 65 64 64 64 65 65 65 66 66 66 65 67 67 67 68 68 66
33 33 27 27 21 24 23 28 36 36 36 39 42 42 42 43 46 43 46 51 52 54 56 59 61 63 64 63 62 63 64 63 63 63 64 64 66 66 66 66 67 68 68 68
35 41 34 28 28 24 33 43 46 45 35 42 43 42 41 44 40 39 50 53 54 55 58 60 62 63 63 63 62 63 61 60 60 62 62 64 65 65 65 66 66 68 67 67
32 35 32 30 30 30 38 44 44 35 40 44 44 46 46 45 47 51 53 53 55 56 58 60 61 62 62 61 62 60 61 60 62 62 63 64 64 62 65 66 65 66 66 67
31 31 30 34 33 31 42 42 40 45 48 45 47 47 49 50 51 51 51 55 54 55 58 61 60 61 60 60 61 60 61 62 62 62 61 62 63 62 62 66 66 66 67 66
33 35 33 36 34 42 41 41 43 45 48 48 48 48 51 50 48 51 53 53 56 58 60 62 58 59 60 62 62 62 63 62 62 61 62 62 62 63 63 64 64 64 65 65
38 42 39 39 41 39 40 40 42 46 49 49 50 50 50 50 52 53 54 55 57 60 60 61 58 58 58 61 61 61 62 61 61 61 60 61 62 62 64 58 57 58 61 60
33 43 40 40 41 42 41 41 45 46 51 52 50 50 52 53 53 53 54 57 58 59 61 61 60 59 59 60 60 61 61 60 58 58 57 58 57 60 59 59 57 57 59 54
34 35 33 33 40 41 42 45 49 51 50 49 50 51 52 52 53 53 53 57 59 59 62 61 61 59 60 60 60 62 63 61 59 57 52 53 53 54 55 55 56 48 47 44

GFSCGP_sfc_dewp_126.txt.gz
Dewpoint
31 26 25 23 21 19 17 16 16 17 17 17 19 20 25 27 30 35 38 42 44 46 55 61 61 64 65 68 72 74 74 77 74 74 72 71 70 70 69 71 74 75 74 75
24 24 23 20 18 17 17 17 18 18 18 17 18 18 24 27 30 35 38 44 47 51 61 62 63 64 66 68 72 74 75 76 74 74 74 73 72 70 70 70 74 74 74 74
18 19 19 18 17 18 19 18 20 19 19 18 19 20 25 28 31 36 41 47 51 55 58 61 63 65 65 69 71 73 75 76 76 76 75 75 76 74 71 71 69 72 73 73
18 18 17 18 20 20 21 22 20 17 17 16 20 20 31 28 31 35 41 45 48 53 58 61 63 65 65 68 70 74 75 76 76 76 75 74 72 72 71 72 70 71 71 73
21 19 18 19 21 22 23 23 22 20 19 19 18 16 28 29 28 29 38 42 45 51 51 55 59 62 64 66 68 72 76 77 77 76 75 74 73 72 72 70 76 76 72 72
19 19 18 17 22 21 22 21 23 23 22 21 23 18 26 28 31 33 38 40 43 46 53 56 58 60 61 60 61 64 75 77 77 77 76 76 75 73 71 69 71 72 74 73
21 19 17 19 19 22 24 23 21 21 21 24 27 22 32 33 35 36 38 39 41 43 50 55 56 58 60 60 62 63 72 75 76 77 77 77 76 76 75 74 73 72 67 70
19 19 19 22 21 24 26 22 21 23 19 21 23 21 31 36 37 38 38 37 38 40 45 47 51 56 56 57 60 64 70 73 74 73 76 77 77 75 75 74 73 73 73 66
22 22 23 23 22 22 23 25 24 24 23 17 19 30 35 35 36 36 35 37 40 44 46 48 48 52 56 59 61 62 69 72 73 73 74 76 76 77 75 75 76 74 74 70
25 26 24 23 23 23 22 23 22 22 27 25 21 24 32 37 35 36 36 37 43 44 42 47 50 54 56 58 62 63 65 70 71 70 73 72 74 76 76 77 76 75 74 74
24 24 25 26 25 24 23 26 28 24 26 24 20 24 38 35 36 37 36 36 41 45 47 49 50 53 59 56 59 63 64 68 70 71 71 73 73 73 75 75 76 76 76 75
28 23 25 24 25 27 27 27 27 24 28 27 27 26 29 34 33 33 33 39 41 46 49 52 54 55 56 60 61 61 65 66 69 70 71 70 71 71 71 73 74 75 75 75
31 27 25 26 21 23 26 28 30 29 30 31 26 25 27 31 31 35 33 35 48 51 50 52 57 57 59 60 62 63 65 65 67 67 67 68 69 69 70 70 72 75 74 74
40 30 29 19 24 26 28 28 29 28 27 26 24 27 30 30 31 40 41 45 48 52 52 54 58 60 61 63 64 64 66 65 67 68 68 69 70 69 69 70 71 72 74 74
29 30 27 26 26 24 23 22 22 22 24 23 24 24 29 36 41 43 44 45 46 51 51 54 55 59 61 62 62 64 65 67 68 68 68 68 69 69 70 71 71 71 72 73
33 35 32 29 27 24 22 21 21 20 20 21 22 24 29 40 42 45 46 46 49 50 49 53 54 56 58 61 62 63 65 67 68 67 67 68 68 69 69 69 70 70 71 72
37 35 34 31 30 27 24 23 21 22 22 22 22 27 31 42 44 44 44 45 47 48 49 54 56 57 59 60 62 64 66 67 66 67 67 68 68 68 69 69 69 69 70 72
36 43 37 30 32 26 26 23 22 22 25 26 29 32 36 42 42 41 50 49 50 50 53 55 56 59 60 61 63 66 66 66 64 66 66 67 67 67 68 68 69 69 68 70
29 34 31 29 27 28 22 23 32 33 30 36 36 36 36 41 41 44 48 48 51 53 55 58 59 60 63 62 66 65 65 65 63 63 64 65 65 66 67 67 68 69 69 68
30 43 32 31 29 27 33 28 39 37 33 43 44 45 44 45 41 43 54 51 53 55 59 58 59 60 60 64 65 66 64 62 61 62 64 64 64 65 65 67 68 68 69 68
33 35 32 31 30 29 31 31 41 35 40 47 46 47 46 44 48 51 51 51 53 55 57 59 60 59 62 64 65 64 64 62 62 64 64 63 65 65 67 68 69 69 68 69
31 36 33 36 34 31 43 40 40 51 46 43 44 45 49 49 50 51 51 53 54 55 57 59 59 61 64 65 65 64 63 64 63 63 62 61 63 65 65 67 68 68 67 66
27 33 32 36 33 47 42 45 47 46 46 44 46 45 46 48 50 53 53 52 54 56 57 60 59 62 64 64 64 62 62 62 62 61 60 61 62 64 66 66 66 67 67 64
33 40 36 42 40 41 42 38 44 49 46 46 45 46 47 48 52 51 54 54 56 57 58 58 59 61 63 63 63 61 61 61 60 59 60 61 61 63 65 67 65 64 63 64
28 39 38 39 43 46 43 43 44 44 45 44 45 45 44 52 54 57 55 56 58 58 59 60 62 62 62 61 62 61 60 60 60 59 58 60 59 63 64 60 57 60 55 54
29 33 30 31 43 44 42 43 41 42 42 45 45 46 50 51 52 52 54 56 57 56 58 59 60 61 61 61 60 61 61 61 60 59 59 60 56 56 59 61 57 49 49 46

GFSCGP_sfc_dewp_129.txt.gz
Dewpoint
31 27 26 27 26 20 18 18 17 23 18 18 19 26 25 31 36 38 40 52 56 55 60 62 63 65 66 67 69 70 71 72 72 72 71 70 69 70 69 70 71 72 72 73
33 28 28 20 19 20 18 17 18 22 19 18 18 25 26 31 36 39 48 52 59 61 62 63 65 65 67 68 71 71 72 72 71 72 70 70 70 69 69 69 70 73 73 72
23 21 21 21 20 18 19 19 22 22 21 20 19 24 29 32 40 44 50 53 57 61 61 62 64 65 68 69 71 71 72 72 72 72 73 72 73 70 70 68 67 73 73 72
21 20 18 20 20 22 24 24 23 21 20 19 21 19 30 30 38 43 48 50 54 59 61 63 63 64 67 69 69 72 73 74 72 73 72 72 70 69 69 69 67 68 73 73
21 23 20 20 23 22 29 23 22 23 20 19 20 20 30 32 36 42 46 49 53 57 59 59 61 63 68 69 70 72 73 73 74 72 72 72 72 71 72 71 70 71 70 72
21 22 20 22 21 25 23 23 25 25 22 22 25 26 31 32 37 43 45 49 51 53 55 58 59 60 60 60 64 72 74 73 74 74 74 72 71 72 71 70 68 70 71 70
22 20 19 19 24 23 22 28 25 25 24 26 27 29 31 36 39 40 42 45 50 54 55 58 60 59 61 61 62 62 66 70 75 75 74 74 73 73 71 70 69 67 70 70
21 24 20 22 23 26 24 29 23 25 24 26 27 25 36 40 39 41 42 42 45 50 55 57 59 59 58 60 62 63 65 66 68 70 74 75 75 75 74 73 71 70 71 69
23 25 23 23 23 23 25 26 25 22 23 21 25 35 38 38 37 38 38 44 46 48 49 49 52 57 58 58 59 60 66 67 68 69 71 72 74 74 75 75 74 73 72 72
26 25 26 25 24 27 24 25 21 25 23 22 27 33 34 38 38 38 41 43 45 46 47 49 52 56 57 58 58 60 61 66 67 69 70 70 71 72 73 74 74 74 74 72
36 29 26 27 26 25 27 24 30 29 28 24 25 34 38 40 40 39 38 45 46 48 52 52 53 54 55 56 59 60 61 62 65 67 67 67 68 70 70 72 73 74 74 74
37 26 32 27 29 27 26 27 28 30 29 27 31 29 30 38 35 33 40 44 50 50 51 53 53 54 56 58 59 60 62 63 66 67 68 68 68 68 69 69 71 72 73 74
36 33 28 27 27 25 28 29 31 32 33 29 30 29 34 36 39 41 46 50 51 50 50 54 54 55 56 57 60 61 63 64 64 66 66 66 67 68 68 68 68 69 71 72
39 29 31 26 26 25 27 27 31 29 29 29 29 28 32 38 42 45 46 47 46 48 52 54 55 57 57 60 61 62 62 64 65 66 66 66 66 67 67 66 68 68 69 70
31 30 32 25 25 25 26 25 23 23 26 27 24 26 27 39 44 45 48 51 50 49 50 52 52 54 56 56 59 61 62 65 65 65 65 65 66 67 67 66 67 68 69 68
32 34 36 31 30 29 27 25 25 23 22 22 21 24 39 47 47 46 47 47 47 48 51 53 53 54 54 56 59 60 62 64 65 64 65 65 66 66 66 66 66 67 68 68
39 39 38 34 34 32 30 29 27 25 24 23 24 31 43 44 43 43 47 51 50 50 51 52 54 55 56 57 58 59 63 64 64 63 64 65 65 65 65 66 66 66 67 66
36 37 36 33 33 28 30 32 28 25 27 29 37 39 43 44 47 50 51 49 48 49 51 54 56 57 57 59 61 63 63 63 63 63 63 64 64 64 65 65 65 66 66 66
31 39 33 32 32 32 31 31 38 37 37 43 45 46 47 48 48 50 51 51 49 50 53 55 56 56 58 59 60 63 63 62 63 61 62 62 62 62 62 63 64 65 66 66
29 40 34 32 29 29 34 33 33 39 36 48 48 48 46 47 43 48 51 51 49 53 55 56 58 57 57 60 62 61 61 61 60 60 61 61 62 62 62 63 63 64 65 66
34 37 35 34 32 33 41 44 43 35 42 47 46 47 46 44 47 48 51 51 53 52 54 57 59 58 59 62 62 61 61 60 61 60 60 60 60 61 62 63 62 64 64 65
37 39 35 36 32 31 45 43 42 46 47 46 47 48 49 49 52 51 49 49 51 55 56 57 58 58 60 61 62 60 59 61 60 59 59 59 60 61 61 62 62 63 63 62
34 36 38 39 40 46 45 47 48 48 47 46 46 48 49 48 51 53 52 53 52 54 57 58 57 58 60 61 61 58 59 60 60 59 58 59 60 59 60 61 60 61 62 62
40 42 40 38 43 43 44 45 48 48 47 47 46 47 47 47 52 52 52 52 54 55 54 58 58 59 59 61 60 59 60 59 57 56 56 59 59 59 60 61 61 57 57 58
35 39 36 40 43 43 44 45 44 47 48 48 48 49 48 52 53 51 51 53 57 57 57 59 58 58 58 59 58 59 60 59 57 57 57 58 58 59 59 58 53 56 53 51
36 38 36 39 45 44 45 48 43 44 44 46 46 48 52 54 54 54 54 56 55 56 56 57 57 57 58 58 59 59 59 59 58 57 58 58 58 56 57 59 55 50 48 46

GFSCGP_sfc_dewp_135.txt.gz
Dewpoint
33 27 26 25 25 26 28 20 18 23 21 22 23 29 38 51 51 51 51 52 52 53 54 58 62 64 65 66 68 69 70 70 70 70 70 70 70 69 69 71 72 73 72 72
26 27 29 31 30 28 26 18 20 20 20 20 26 27 36 45 50 51 51 52 52 53 56 59 63 64 66 68 68 69 70 70 71 70 69 70 69 68 69 69 71 72 72 71
24 26 30 31 23 20 23 20 22 23 22 19 25 27 34 49 55 54 52 52 53 54 57 59 64 63 65 68 69 69 70 70 70 70 70 70 70 70 68 68 68 70 72 72
24 26 25 22 24 23 35 24 23 22 20 16 22 22 32 42 54 57 58 56 55 56 60 61 65 65 64 65 69 70 71 70 71 71 70 69 68 67 68 68 68 68 72 72
21 21 21 25 23 22 21 25 24 25 20 29 21 20 31 46 52 55 58 60 61 62 61 63 65 66 65 67 68 71 70 70 70 71 70 70 69 69 69 69 70 70 70 72
22 22 19 21 24 24 26 25 25 28 23 20 21 22 27 43 51 53 57 59 61 61 63 64 66 67 67 69 69 71 71 70 70 70 71 71 70 70 69 70 70 70 71 70
21 21 22 20 20 24 24 22 20 22 23 22 26 27 29 37 48 55 55 58 59 59 62 64 66 67 68 69 70 70 71 71 71 71 71 71 71 72 71 70 71 71 71 70
17 19 24 25 21 21 23 21 21 22 20 22 29 32 34 40 47 51 56 57 57 57 58 62 63 64 65 67 69 70 70 70 71 72 72 73 72 72 72 72 72 72 72 72
21 21 25 25 23 22 25 22 23 21 25 19 23 34 39 42 46 48 50 54 55 56 58 59 59 60 61 62 64 66 69 68 67 70 71 72 73 72 72 72 72 72 72 72
22 23 24 26 24 25 22 22 18 20 19 22 24 31 34 37 42 46 50 53 55 56 57 59 59 59 59 60 60 61 63 63 64 65 66 67 67 69 70 71 70 70 71 72
25 25 22 26 24 23 23 23 26 23 23 22 23 30 37 37 42 45 49 52 53 52 54 55 56 57 58 59 60 60 61 61 62 64 66 66 67 67 68 68 69 69 70 70
28 22 22 22 29 27 25 24 27 26 26 26 24 23 33 37 40 44 45 47 51 52 53 53 54 56 56 56 57 58 60 61 63 63 64 64 65 65 65 65 65 66 67 68
28 25 22 20 20 22 25 28 31 29 28 27 25 25 32 39 40 42 44 49 50 51 52 53 54 55 56 58 58 58 57 58 60 62 64 65 64 64 64 64 65 65 66 66
40 28 22 18 17 23 25 27 28 30 28 28 26 27 30 39 43 47 48 50 50 52 52 53 53 54 54 54 54 55 56 58 61 62 64 64 63 63 63 63 64 65 65 65
25 26 29 26 24 26 28 28 27 23 25 20 21 26 26 36 43 47 48 49 51 52 50 50 50 51 52 52 53 54 56 57 59 61 63 63 63 63 63 64 64 65 65 65
30 25 30 29 31 30 30 30 29 28 25 24 23 22 31 39 46 47 47 46 48 50 49 50 51 51 51 52 53 55 56 58 59 60 61 62 63 62 62 63 63 63 64 64
34 34 28 29 32 29 28 28 28 31 33 28 24 25 45 45 46 47 46 47 50 50 51 51 51 52 52 53 55 55 58 59 60 61 62 63 63 62 62 62 61 61 61 62
33 33 32 31 32 26 29 33 32 40 45 41 44 45 45 45 48 48 49 48 48 48 48 49 51 54 55 54 57 57 59 59 59 60 61 62 62 61 60 59 59 59 60 61
32 30 30 27 28 29 30 31 32 30 42 47 45 47 48 47 46 45 49 47 46 48 48 50 52 53 53 56 57 59 59 58 59 59 60 61 61 60 59 59 58 58 59 60
33 30 28 31 25 24 31 32 42 37 39 47 46 45 46 44 41 44 48 51 50 51 54 54 55 55 57 56 58 58 58 58 59 59 60 61 60 58 58 57 57 58 59 60
28 31 26 32 28 29 33 38 40 31 33 47 45 45 43 43 44 45 49 48 49 52 53 53 54 57 57 57 58 58 58 58 59 59 59 59 58 57 57 56 57 57 59 61
22 27 30 31 28 25 41 40 35 39 45 45 45 46 46 46 49 50 50 50 51 51 50 53 54 55 56 57 57 57 57 58 58 58 58 57 57 57 58 56 57 58 60 60
24 33 32 33 33 40 44 45 47 44 44 44 44 45 45 46 48 51 50 50 50 50 51 53 53 52 55 57 57 56 57 57 58 57 57 57 58 57 57 56 57 58 59 57
32 37 34 35 40 42 45 43 44 45 43 44 45 47 49 50 50 49 48 49 50 51 52 54 53 51 53 57 57 57 57 58 57 57 56 55 55 55 55 57 58 59 58 57
32 34 36 37 42 41 45 48 45 46 46 49 50 51 50 49 49 49 49 50 51 52 54 55 53 53 54 56 56 57 58 57 57 55 55 55 55 55 56 57 58 59 59 56
38 35 32 32 37 39 46 50 50 49 50 49 50 49 50 50 49 50 49 50 51 52 53 54 54 55 56 55 55 56 57 57 55 54 54 54 55 56 57 55 57 55 52 49